Theta_e
296 295 295 296 296 297 297 298 299 300 300 301 302 304 306 310 318 331 335 334 332 327 325 324 321 320 318 315 310 310 310 309 310 310 310 310 308 308 308 306 306 305 305
296 296 295 296 296 296 297 297 298 299 300 300 302 303 305 308 314 330 332 331 328 327 326 324 322 321 318 314 312 312 310 311 310 310 308 307 306 306 305 304 303 303 303
296 296 296 296 296 296 296 296 297 299 300 301 301 303 305 307 312 329 331 330 330 329 324 321 316 316 314 313 311 310 310 310 308 306 304 304 304 304 303 303 303 302 302
296 296 297 297 296 296 296 296 296 297 299 301 302 302 304 307 311 326 328 328 327 324 321 318 315 315 312 311 310 310 308 305 303 304 303 303 303 303 303 303 302 301 301
296 296 296 297 297 297 296 295 295 295 297 300 302 303 304 307 311 324 326 325 323 320 318 317 318 315 312 311 310 308 305 304 304 303 302 302 302 303 303 303 300 300 300
296 296 296 296 297 296 295 294 294 296 299 302 304 304 305 308 313 326 329 326 324 319 315 314 315 313 311 310 309 308 305 305 304 303 302 303 302 303 302 302 300 299 300
295 296 296 296 296 295 293 293 294 300 301 305 310 306 306 309 315 327 327 323 320 316 313 311 311 311 310 309 307 306 305 306 306 305 304 303 303 302 302 300 300 299 299
295 295 295 297 296 294 292 292 293 293 295 297 301 306 309 314 324 326 322 319 316 313 311 312 311 310 308 306 306 305 305 304 304 304 304 303 303 302 302 300 300 299 299
295 295 295 296 296 294 293 291 292 292 292 292 294 296 298 305 321 323 316 312 310 308 310 311 310 308 307 307 306 306 305 304 304 303 302 301 301 301 300 299 299 299 300
294 294 294 296 295 293 293 293 292 291 291 291 291 290 292 295 304 310 311 307 304 301 301 303 306 305 306 306 306 304 302 302 301 301 300 299 299 298 298 298 297 298 299
294 294 294 296 295 293 292 292 292 292 291 291 290 291 291 290 294 298 302 301 300 299 298 297 300 303 304 303 302 301 301 299 299 298 297 297 298 297 298 298 298 298 299
293 293 294 296 295 293 292 292 291 291 291 291 291 291 291 292 291 293 297 297 298 297 296 297 298 300 300 301 301 300 298 298 297 297 297 297 297 297 297 297 297 298 298
293 293 293 294 296 294 292 291 291 291 291 291 291 290 290 291 292 291 292 293 296 296 296 296 297 298 298 298 297 297 297 297 297 297 298 298 297 296 296 297 297 297 298
293 293 293 292 293 294 293 292 292 291 291 291 290 290 290 290 290 292 291 292 292 294 295 296 297 297 297 297 297 297 297 297 297 297 296 296 295 296 296 296 297 298 298
292 292 292 292 292 292 293 292 291 291 290 290 290 290 290 290 290 291 292 292 293 295 296 296 296 297 296 296 296 296 296 295 295 295 295 295 295 295 295 295 296 298 298
291 291 291 291 291 291 292 293 291 290 290 289 289 290 290 290 290 291 291 291 293 294 293 294 294 295 295 295 295 295 295 295 295 295 295 295 295 295 295 295 296 296 297
291 290 290 290 290 290 291 292 292 291 290 289 289 289 289 289 289 289 289 290 290 291 291 292 292 292 293 293 293 294 294 294 294 294 294 294 294 294 294 295 296 296 297
291 290 289 289 289 288 289 289 289 290 291 289 289 288 288 289 289 288 287 288 288 289 290 290 291 291 291 291 292 292 292 292 292 293 293 293 294 294 294 295 295 295 297
290 290 290 289 289 288 288 287 287 287 288 288 288 287 288 288 288 287 287 287 287 288 288 289 289 290 290 291 291 291 291 291 291 291 291 292 292 293 293 294 295 295 296
290 289 289 290 289 288 288 287 287 287 286 286 286 287 286 286 286 286 286 287 286 287 287 287 287 287 288 289 290 290 290 290 290 291 290 290 291 292 293 293 294 294 295
292 290 289 289 289 290 289 287 287 287 286 285 285 285 286 285 285 285 285 285 285 285 285 285 286 287 287 287 287 289 289 289 289 290 290 289 290 290 291 292 293 294 294
293 292 290 288 289 289 289 288 287 286 286 286 284 284 283 284 284 284 283 284 284 284 284 285 285 285 285 285 286 287 288 288 289 289 289 289 290 290 290 290 291 292 294
294 293 291 289 288 288 288 288 287 286 286 285 283 283 283 283 283 283 283 283 283 283 283 284 284 284 284 284 285 285 286 288 288 288 288 289 289 290 290 290 291 291 293
295 293 291 290 288 288 289 288 287 286 285 284 283 282 282 282 282 282 282 282 282 282 282 283 283 283 284 284 284 284 285 287 287 287 288 288 288 289 290 289 290 291 293
296 294 292 290 288 288 287 287 287 285 285 283 281 281 281 281 281 281 281 281 282 281 282 282 282 283 283 283 283 283 284 285 286 286 286 287 288 288 289 288 289 290 291
297 295 293 290 289 288 288 287 286 285 283 282 280 280 280 280 280 280 280 281 281 282 281 282 282 282 282 282 282 283 283 283 284 284 285 286 287 287 287 287 287 288 289
Wind_Speed
29 30 32 38 43 38 36 35 34 35 35 36 37 36 33 33 33 33 34 34 33 29 24 22 21 22 20 19 15 12 15 12 4 7 10 7 4 3 4 7 10 13 15
31 32 32 34 33 35 38 40 42 39 37 36 37 37 36 34 31 36 36 37 34 32 33 37 38 33 28 29 27 32 24 17 10 8 8 6 4 3 6 8 11 13 15
32 32 35 36 38 37 38 39 40 40 42 42 37 36 35 35 33 39 40 40 40 41 41 40 34 39 37 35 40 36 24 18 12 8 6 4 1 4 8 9 10 13 14
31 32 33 35 37 39 39 41 41 41 40 43 41 37 36 37 37 36 42 43 43 40 39 37 34 37 38 43 36 28 24 20 14 11 6 3 1 2 6 7 10 16 18
31 34 36 38 40 39 38 40 41 43 44 43 42 39 36 35 36 37 41 42 40 35 36 40 38 36 40 39 33 26 22 19 17 12 7 4 2 1 3 4 6 11 14
30 32 39 40 43 43 41 42 43 45 45 43 42 39 36 35 37 39 45 42 40 37 34 34 35 37 34 29 23 20 18 19 15 10 6 4 3 4 4 3 4 4 5
29 30 34 40 41 42 41 40 46 42 43 41 31 33 33 34 35 41 49 42 40 37 38 35 34 34 30 26 21 19 16 12 8 8 8 5 5 5 4 4 4 4 5
31 31 32 37 39 40 40 38 43 43 43 42 37 23 28 32 33 42 44 33 33 34 37 38 36 35 32 29 26 21 16 11 9 8 5 5 5 6 6 7 9 11 11
29 30 33 31 37 37 37 39 40 42 43 43 39 42 43 29 26 39 36 31 35 34 39 39 36 32 29 27 25 20 16 13 8 7 6 6 5 6 7 10 11 11 9
31 31 30 25 30 32 34 36 42 44 44 41 42 45 43 44 27 23 35 34 36 40 37 39 35 34 29 24 22 20 19 12 10 7 6 6 7 8 8 9 10 10 6
29 29 29 20 25 29 30 37 42 45 43 43 40 45 48 46 47 35 23 31 31 31 35 33 31 27 25 22 19 16 13 8 5 5 3 3 3 2 0 2 4 7 6
29 28 29 21 28 30 31 35 37 40 38 37 38 39 43 48 45 42 38 39 33 30 24 29 25 23 21 18 15 11 10 8 7 6 5 3 2 1 4 4 6 8 9
29 28 27 26 21 27 28 30 32 34 33 34 33 30 33 43 41 36 35 34 29 27 22 18 18 16 17 16 15 14 15 13 9 7 5 3 1 3 6 5 6 9 10
28 28 27 26 23 21 24 25 25 27 28 29 31 31 31 32 33 35 30 30 26 27 23 22 19 16 16 15 15 14 12 10 6 4 2 0 2 4 4 4 6 7 6
26 27 27 26 24 22 16 21 24 26 26 24 26 27 27 27 30 30 31 27 25 23 23 24 22 17 17 14 14 12 9 7 5 4 3 1 1 3 4 4 4 5 4
24 24 25 27 26 22 17 13 18 21 25 26 25 25 27 28 28 26 25 23 19 17 22 18 17 16 12 9 8 7 7 5 3 2 1 1 3 3 5 6 6 6 7
22 23 24 24 24 23 21 16 15 20 22 23 26 27 25 24 26 26 21 20 23 21 19 15 13 11 9 8 6 5 3 3 3 3 1 3 4 5 5 6 6 6 7
20 19 22 23 22 22 22 21 19 17 17 21 25 25 24 23 23 25 26 24 22 19 14 12 10 9 8 6 5 5 4 4 3 3 3 2 1 2 4 5 5 6 8
19 20 17 18 19 20 22 21 18 17 16 16 20 23 25 22 21 19 21 17 16 16 14 12 11 10 7 6 5 5 5 4 5 5 4 4 4 4 5 7 7 7 8
19 19 17 15 16 17 19 22 21 19 17 18 17 17 21 20 19 19 18 17 16 13 11 10 10 9 8 7 6 6 5 4 4 4 5 6 6 6 7 7 7 8 9
14 16 19 16 16 16 14 18 20 18 16 18 19 23 23 20 17 17 17 17 16 16 14 12 11 10 11 11 11 10 8 7 8 7 6 7 6 7 7 7 9 9 8
11 14 18 20 16 16 14 18 21 17 16 20 21 20 23 17 15 17 19 19 19 19 17 16 16 15 16 13 11 12 10 7 8 7 6 7 7 7 7 10 10 8 9
9 11 15 19 18 17 15 16 20 22 20 19 19 20 20 17 16 16 18 18 17 16 15 15 16 15 14 13 11 10 11 12 11 9 10 9 9 10 11 9 8 9 9
10 9 11 15 16 17 19 19 16 21 18 18 18 17 15 14 14 15 16 16 16 17 17 18 16 14 13 13 11 11 12 11 11 12 10 11 12 12 11 10 11 9 8
11 10 12 15 17 16 19 19 18 21 20 20 21 22 22 21 22 21 21 18 18 19 19 18 16 16 16 16 16 14 14 14 15 14 14 13 14 14 13 11 12 11 8
10 11 13 16 19 18 18 18 18 24 23 22 25 26 25 25 26 25 25 25 24 25 21 19 19 18 18 16 15 13 14 16 17 17 15 15 14 15 14 15 15 12 12
Wind_Direction
339 336 332 327 325 323 318 312 312 308 301 296 295 294 289 286 283 227 220 218 213 204 181 183 189 180 199 205 215 215 220 199 165 190 195 203 222 252 305 324 322 320 316
339 337 333 330 325 318 316 312 311 307 305 296 291 289 286 285 285 218 208 205 201 196 187 191 198 203 190 203 217 222 207 193 188 180 181 198 225 290 323 330 334 336 336
340 339 337 332 330 324 319 313 308 304 303 300 288 281 281 278 275 228 210 209 200 206 203 196 193 186 185 198 203 197 184 180 180 168 160 185 244 327 327 335 337 341 342
344 341 337 338 332 324 320 316 311 305 298 295 287 277 274 269 268 238 207 204 205 203 198 192 189 189 184 194 195 187 174 161 154 151 150 153 165 305 327 333 342 349 346
345 344 344 341 337 330 323 320 314 309 301 291 282 275 267 262 261 252 206 199 192 188 185 191 193 195 198 194 189 177 169 153 148 144 139 160 149 313 307 323 326 341 349
341 348 349 346 342 340 335 330 327 319 311 296 279 270 262 257 255 246 211 203 196 185 174 177 188 192 194 185 185 179 177 163 156 146 149 152 202 226 248 267 319 347 346
337 340 343 349 347 346 342 345 344 344 341 335 295 269 260 258 259 229 211 195 184 177 164 166 165 175 169 167 166 162 159 158 148 155 158 183 200 225 225 253 291 289 283
337 341 342 349 351 354 354 356 1 355 357 358 4 340 273 263 245 216 193 178 165 156 155 157 157 158 161 160 157 157 154 153 151 166 185 199 229 235 221 259 284 287 291
341 348 348 349 353 357 1 6 5 3 5 4 5 20 18 11 228 203 165 148 137 130 144 152 155 151 153 155 154 148 144 142 142 161 163 161 187 224 253 273 267 275 285
350 353 357 351 0 4 8 15 19 13 9 10 12 21 25 24 37 148 145 133 125 115 117 128 139 138 139 141 140 142 142 137 154 168 191 215 237 252 257 263 264 251 272
4 7 7 0 7 12 11 15 25 21 10 10 12 21 26 27 34 44 88 113 108 108 113 113 118 129 129 129 130 124 121 157 186 206 189 153 125 102 303 272 266 243 236
9 14 13 8 17 21 19 19 17 24 13 7 12 18 24 36 38 42 57 77 88 91 86 109 114 117 118 116 114 124 137 151 158 145 145 146 155 58 334 323 297 280 278
11 16 16 17 6 22 26 23 20 18 19 11 10 11 17 31 35 42 49 61 68 83 85 93 101 104 103 104 122 127 137 144 156 147 160 160 205 322 330 309 300 298 294
13 14 16 18 13 11 29 28 24 20 17 16 10 9 13 22 25 37 43 59 70 75 80 77 84 93 105 116 126 132 132 132 134 147 138 55 306 326 346 340 316 314 309
19 15 15 13 15 16 23 37 35 33 32 23 19 15 15 20 25 37 42 43 54 70 86 87 83 82 89 94 105 119 130 127 130 132 121 98 27 338 333 325 305 310 298
18 15 15 15 13 15 20 26 36 38 34 32 30 30 28 33 33 37 41 45 52 70 68 63 65 66 68 69 77 90 100 95 93 109 82 326 322 328 327 322 315 313 303
18 20 22 20 17 17 17 13 6 8 20 29 27 31 33 32 32 35 40 46 44 51 48 49 56 57 53 47 47 57 54 38 31 30 354 337 335 327 311 314 323 316 301
20 21 22 25 23 24 23 19 12 357 354 2 21 25 26 27 27 29 33 39 34 36 35 35 40 37 34 19 9 10 359 1 360 346 350 343 323 309 304 300 300 302 298
22 16 15 19 23 23 21 19 16 9 6 2 4 13 18 22 24 27 32 30 24 20 15 14 16 12 1 351 351 349 340 338 335 344 336 330 332 317 301 290 289 291 301
26 21 14 8 5 12 19 16 12 11 6 1 5 5 4 8 13 13 11 10 14 6 360 358 358 350 342 334 327 320 325 340 338 332 332 330 312 304 293 290 290 290 287
14 20 22 9 7 4 3 10 10 6 6 3 0 3 2 2 359 3 2 358 356 354 347 341 339 338 332 327 320 315 310 328 317 295 290 289 292 290 297 292 286 288 293
358 6 12 16 13 11 4 6 8 2 358 358 356 355 2 1 354 354 352 349 349 348 350 343 336 331 324 320 313 308 303 297 292 292 297 281 271 275 288 286 283 297 285
343 357 3 8 9 7 8 355 359 0 354 351 351 350 352 351 346 343 342 342 342 338 332 330 327 316 315 310 304 302 297 286 285 287 286 283 289 283 267 272 281 278 295
330 350 355 359 1 1 2 357 354 356 353 347 345 344 342 340 335 330 333 336 336 335 330 328 325 316 310 307 305 295 292 292 282 275 278 280 278 277 266 273 281 274 274
325 336 343 349 353 353 354 351 349 349 347 346 345 345 346 345 345 345 344 339 335 333 330 330 327 321 314 305 304 296 285 278 273 269 269 268 266 258 259 259 265 276 273
325 332 339 343 345 347 347 348 346 345 344 343 345 346 345 345 345 344 342 341 338 338 334 329 325 318 314 314 311 302 291 280 272 264 262 262 258 252 257 256 256 260 257